Back to catalog

OPS 1948

AliveMilitaryMEO
NORAD 11558·PAYLOAD·🇺🇸 United States

Launched Oct 1, 1979 from Cape Canaveral Space Force Station

Loading…

Next Passes (next 24 hours)

TLE

FreshSource: Space-Track

Epoch: Sep 14, 2026, 13:54 UTC

1 11558U 79086A   26257.57917436 -.00000038  00000-0  00000-0 0  9996
2 11558   6.0964  12.4262 1310555  78.6326 120.3867  1.00209444 27107

Track OPS 1948 in real time with AllMySat

Download on the App Store